UAL2272 KSFO-KMSP

Flight info

Callsign UAL2272
Flight time N/A
Altitude 37000
Route TRUKN2 ORRCA Q120 UFFDA TORGY4
Aircraft A319/M-SDE3FGHIRWY/LB1

Departure

Time N/A
Airport San Francisco International Airport (KSFO)

Arrival

Time 2026-05-05 20:18
Airport Minneapolis–Saint Paul International Airport / Wold–Chamberlain Field (KMSP)
Time Latitude Longitude Altitude Speed Heading
2026-05-05 19:44 44.43245 -97.01691 36918 ft 535 kts 84°
2026-05-05 19:44 44.43617 -96.96532 36909 ft 535 kts 84°
2026-05-05 19:45 44.44359 -96.86176 36930 ft 536 kts 84°
2026-05-05 19:45 44.45089 -96.75854 36916 ft 534 kts 84°
2026-05-05 19:46 44.45809 -96.65582 36915 ft 535 kts 84°
2026-05-05 19:46 44.46524 -96.55199 36909 ft 535 kts 84°
2026-05-05 19:47 44.47223 -96.44922 36905 ft 536 kts 84°
2026-05-05 19:47 44.47920 -96.34574 36900 ft 535 kts 84°
2026-05-05 19:48 44.48609 -96.24234 36900 ft 536 kts 85°
2026-05-05 19:48 44.49276 -96.13902 36904 ft 537 kts 85°
2026-05-05 19:49 44.49427 -96.03508 36911 ft 535 kts 94°
2026-05-05 19:49 44.49010 -95.93116 36917 ft 535 kts 95°
2026-05-05 19:50 44.48548 -95.82767 36927 ft 537 kts 95°
2026-05-05 19:50 44.48108 -95.72323 36922 ft 537 kts 95°
2026-05-05 19:51 44.47666 -95.61922 36929 ft 537 kts 94°
2026-05-05 19:51 44.47223 -95.51585 36474 ft 534 kts 94°
2026-05-05 19:51 44.46997 -95.46455 35641 ft 540 kts 94°
2026-05-05 19:52 44.46771 -95.41216 34443 ft 546 kts 95°
2026-05-05 19:52 44.46537 -95.35905 32995 ft 555 kts 95°
2026-05-05 19:52 44.46294 -95.30512 31507 ft 565 kts 96°
2026-05-05 19:52 44.46046 -95.25082 29743 ft 571 kts 97°
2026-05-05 19:53 44.45945 -95.19569 28017 ft 568 kts 86°
2026-05-05 19:53 44.46558 -95.14252 26885 ft 548 kts 73°
2026-05-05 19:53 44.47647 -95.09295 26169 ft 522 kts 69°
2026-05-05 19:53 44.48772 -95.04684 25827 ft 497 kts 68°
2026-05-05 19:54 44.49893 -95.00165 25438 ft 492 kts 68°
2026-05-05 19:54 44.50997 -94.95631 24976 ft 487 kts 68°
2026-05-05 19:54 44.52052 -94.91206 24539 ft 481 kts 69°
2026-05-05 19:54 44.53094 -94.86755 24086 ft 474 kts 69°
2026-05-05 19:55 44.54095 -94.82447 23668 ft 469 kts 69°
2026-05-05 19:55 44.55093 -94.78123 23192 ft 464 kts 69°
2026-05-05 19:55 44.56072 -94.73854 22738 ft 459 kts 69°
2026-05-05 19:55 44.57045 -94.69615 22303 ft 455 kts 69°
2026-05-05 19:56 44.58004 -94.65419 21828 ft 450 kts 69°
2026-05-05 19:56 44.58945 -94.61309 21408 ft 446 kts 69°
2026-05-05 19:56 44.59886 -94.57184 20970 ft 441 kts 69°
2026-05-05 19:56 44.60803 -94.53164 20604 ft 436 kts 69°
2026-05-05 19:57 44.61715 -94.49147 20219 ft 430 kts 69°
2026-05-05 19:57 44.62618 -94.45177 19738 ft 427 kts 69°
2026-05-05 19:57 44.63506 -94.41248 19372 ft 421 kts 69°
2026-05-05 19:57 44.64391 -94.37341 18932 ft 418 kts 69°
2026-05-05 19:58 44.65257 -94.33495 18577 ft 412 kts 69°
2026-05-05 19:58 44.66110 -94.29701 18209 ft 406 kts 69°
2026-05-05 19:58 44.66956 -94.25943 17844 ft 401 kts 69°
2026-05-05 19:58 44.67791 -94.22227 17467 ft 395 kts 69°
2026-05-05 19:59 44.68607 -94.18599 17097 ft 390 kts 69°
2026-05-05 19:59 44.69413 -94.15017 16753 ft 385 kts 69°
2026-05-05 19:59 44.70214 -94.11458 16367 ft 380 kts 69°
2026-05-05 19:59 44.71007 -94.07931 15945 ft 375 kts 69°
2026-05-05 20:00 44.71777 -94.04493 15367 ft 371 kts 69°
2026-05-05 20:00 44.72546 -94.01070 14783 ft 366 kts 69°
2026-05-05 20:00 44.73305 -93.97682 14346 ft 359 kts 69°
2026-05-05 20:00 44.74046 -93.94358 14019 ft 356 kts 69°
2026-05-05 20:01 44.74779 -93.91072 13768 ft 357 kts 70°
2026-05-05 20:01 44.75521 -93.87741 13507 ft 356 kts 69°
2026-05-05 20:01 44.76257 -93.84442 13169 ft 354 kts 69°
2026-05-05 20:01 44.76993 -93.81149 12890 ft 348 kts 70°
2026-05-05 20:02 44.77706 -93.77940 12737 ft 338 kts 69°
2026-05-05 20:02 44.78392 -93.74854 12587 ft 329 kts 69°
2026-05-05 20:02 44.79065 -93.71817 12412 ft 320 kts 69°
2026-05-05 20:02 44.79726 -93.68838 12116 ft 318 kts 69°
2026-05-05 20:03 44.80380 -93.65893 11759 ft 316 kts 69°
2026-05-05 20:03 44.81032 -93.62952 11447 ft 313 kts 69°
2026-05-05 20:03 44.81675 -93.60043 11129 ft 311 kts 70°
2026-05-05 20:03 44.82316 -93.57136 10799 ft 309 kts 69°
2026-05-05 20:04 44.82942 -93.54289 10484 ft 307 kts 69°
2026-05-05 20:04 44.83572 -93.51421 10165 ft 305 kts 69°
2026-05-05 20:04 44.84195 -93.48588 9845 ft 304 kts 70°
2026-05-05 20:04 44.84816 -93.45753 9524 ft 302 kts 71°
2026-05-05 20:05 44.85088 -93.42847 9175 ft 304 kts 96°
2026-05-05 20:05 44.84346 -93.40085 8869 ft 302 kts 121°
2026-05-05 20:05 44.83206 -93.37619 8568 ft 300 kts 124°
2026-05-05 20:05 44.82045 -93.35176 8287 ft 298 kts 123°
2026-05-05 20:06 44.80948 -93.32788 8172 ft 288 kts 123°
2026-05-05 20:06 44.79892 -93.30415 8094 ft 278 kts 122°
2026-05-05 20:06 44.78907 -93.28164 7978 ft 269 kts 122°
2026-05-05 20:06 44.77954 -93.25974 7965 ft 256 kts 122°
2026-05-05 20:07 44.77026 -93.23843 7970 ft 254 kts 122°
2026-05-05 20:07 44.76107 -93.21736 7973 ft 254 kts 122°
2026-05-05 20:07 44.75196 -93.19643 7951 ft 251 kts 122°
2026-05-05 20:07 44.74298 -93.17538 7682 ft 251 kts 121°
2026-05-05 20:08 44.73404 -93.15430 7387 ft 251 kts 121°
2026-05-05 20:08 44.72508 -93.13319 7114 ft 250 kts 121°
2026-05-05 20:08 44.71627 -93.11245 6835 ft 250 kts 121°
2026-05-05 20:08 44.70740 -93.09161 6570 ft 248 kts 121°
2026-05-05 20:09 44.69854 -93.07079 6303 ft 247 kts 121°
2026-05-05 20:09 44.68970 -93.05005 6039 ft 246 kts 121°
2026-05-05 20:09 44.68103 -93.02971 5976 ft 246 kts 121°
2026-05-05 20:09 44.67219 -93.00898 5975 ft 247 kts 121°
2026-05-05 20:10 44.66339 -92.98809 5973 ft 247 kts 117°
2026-05-05 20:10 44.65935 -92.96513 5935 ft 241 kts 80°
2026-05-05 20:10 44.67813 -92.93130 5984 ft 228 kts 28°
2026-05-05 20:11 44.69148 -92.91972 5962 ft 223 kts 18°
2026-05-05 20:11 44.70587 -92.91762 5880 ft 201 kts 340°
2026-05-05 20:11 44.71776 -92.92660 5709 ft 191 kts 317°
2026-05-05 20:11 44.72765 -92.93851 5502 ft 187 kts 318°
2026-05-05 20:12 44.73764 -92.95008 5269 ft 184 kts 319°
2026-05-05 20:12 44.74762 -92.96116 5056 ft 181 kts 320°
2026-05-05 20:12 44.75743 -92.97182 4872 ft 177 kts 320°
2026-05-05 20:12 44.76712 -92.98220 4691 ft 174 kts 320°
2026-05-05 20:13 44.77669 -92.99260 4490 ft 172 kts 317°
2026-05-05 20:13 44.78524 -93.00423 4275 ft 171 kts 310°
2026-05-05 20:13 44.79258 -93.01726 4058 ft 170 kts 306°
2026-05-05 20:13 44.79957 -93.03112 3734 ft 175 kts 304°
2026-05-05 20:14 44.80601 -93.04497 3391 ft 163 kts 302°
2026-05-05 20:14 44.81167 -93.05777 3141 ft 149 kts 301°
2026-05-05 20:14 44.81703 -93.07017 2941 ft 146 kts 301°
2026-05-05 20:14 44.82225 -93.08232 2751 ft 144 kts 301°
2026-05-05 20:15 44.82721 -93.09387 2576 ft 135 kts 300°
2026-05-05 20:15 44.83207 -93.10516 2390 ft 134 kts 300°
2026-05-05 20:15 44.83672 -93.11594 2215 ft 122 kts 299°
2026-05-05 20:15 44.84092 -93.12566 2029 ft 111 kts 299°
2026-05-05 20:16 44.84490 -93.13488 1873 ft 112 kts 298°
2026-05-05 20:16 44.84894 -93.14429 1790 ft 111 kts 298°
2026-05-05 20:16 44.85298 -93.15361 1609 ft 112 kts 299°
2026-05-05 20:16 44.85704 -93.16297 1432 ft 113 kts 298°
2026-05-05 20:17 44.86105 -93.17242 1295 ft 115 kts 300°
2026-05-05 20:17 44.86532 -93.18219 1130 ft 115 kts 300°
2026-05-05 20:17 44.86938 -93.19153 980 ft 112 kts 299°
2026-05-05 20:17 44.87338 -93.20089 858 ft 110 kts 299°
2026-05-05 20:18 44.87713 -93.20953 818 ft 89 kts 302°
2026-05-05 20:18 44.87948 -93.21494 825 ft 44 kts 301°
2026-05-05 20:18 44.88081 -93.21641 825 ft 16 kts 26°
2026-05-05 20:18 44.88160 -93.21686 825 ft 13 kts 300°
2026-05-05 20:19 44.88208 -93.21799 826 ft 13 kts 302°
2026-05-05 20:19 44.88255 -93.21905 827 ft 12 kts 301°
2026-05-05 20:19 44.88319 -93.21926 828 ft 11 kts 41°
2026-05-05 20:19 44.88377 -93.21853 828 ft 11 kts 45°
2026-05-05 20:20 44.88438 -93.21768 827 ft 13 kts 45°
2026-05-05 20:20 44.88506 -93.21672 825 ft 14 kts 45°
2026-05-05 20:20 44.88575 -93.21574 827 ft 13 kts 45°
2026-05-05 20:20 44.88647 -93.21471 825 ft 14 kts 45°
2026-05-05 20:21 44.88718 -93.21371 826 ft 14 kts 48°
2026-05-05 20:21 44.88727 -93.21263 825 ft 10 kts 104°
2026-05-05 20:21 44.88685 -93.21187 825 ft 10 kts 173°
2026-05-05 20:21 44.88635 -93.21233 825 ft 8 kts 232°
2026-05-05 20:22 44.88607 -93.21275 825 ft 4 kts 225°
2026-05-05 20:22 44.88597 -93.21288 825 ft 0 kts 225°